| time (UTC) | temp F | wind direction | speed knots | gust knots | rain 1hr in | rain 24hr in | rain mn in | humidity % | barometer mb |
| 20260507011343 | 61 | 327 | 5.2 | 7.8 | 0.03 | 0.21 | 0.21 | 90 | 1007.3 |
| 20260507011141 | 61 | 296 | 5.2 | 7.8 | 0.03 | 0.21 | 0.21 | 90 | 1007.5 |
| 20260507010342 | 61 | 324 | 5.2 | 8.7 | 0.02 | 0.20 | 0.20 | 89 | 1007.5 |
| 20260507005941 | 61 | 309 | 5.2 | 8.7 | 0.01 | 0.19 | 0.19 | 89 | 1007.5 |
| 20260507005342 | 61 | 291 | 5.2 | 8.7 | 0.00 | 0.18 | 0.18 | 88 | 1007.1 |
| 20260507004741 | 62 | 289 | 3.5 | 7.8 | 0.00 | 0.18 | 0.18 | 88 | 1007.1 |
| 20260507004342 | 62 | 281 | 1.7 | 7.8 | 0.00 | 0.18 | 0.18 | 88 | 1007.0 |
| 20260507003541 | 63 | 289 | 2.6 | 3.5 | 0.00 | 0.18 | 0.18 | 88 | 1006.9 |
| 20260507003342 | 63 | 259 | 2.6 | 4.3 | 0.00 | 0.18 | 0.18 | 88 | 1006.9 |
| 20260507002341 | 63 | 251 | 2.6 | 6.1 | 0.00 | 0.18 | 0.18 | 88 | 1006.8 |
| 20260507001342 | 63 | 254 | 2.6 | 2.6 | 0.00 | 0.18 | 0.18 | 88 | 1006.4 |
| 20260507001141 | 63 | 254 | 2.6 | 2.6 | 0.00 | 0.18 | 0.18 | 88 | 1006.5 |
| 20260507000343 | 63 | 254 | 2.6 | 3.5 | 0.00 | 0.18 | 0.18 | 87 | 1006.2 |
| 20260506235941 | 63 | 254 | 3.5 | 5.2 | 0.00 | 0.18 | 0.18 | 87 | 1006.2 |
| 20260506235342 | 63 | 251 | 3.5 | 4.3 | 0.00 | 0.18 | 0.18 | 87 | 1006.1 |
| 20260506234741 | 63 | 245 | 3.5 | 4.3 | 0.00 | 0.18 | 0.18 | 87 | 1006.0 |
| 20260506234342 | 63 | 257 | 3.5 | 4.3 | 0.00 | 0.18 | 0.18 | 87 | 1006.0 |
| 20260506233541 | 63 | 255 | 3.5 | 3.5 | 0.00 | 0.18 | 0.18 | 86 | 1005.9 |
| 20260506233342 | 63 | 254 | 3.5 | 3.5 | 0.00 | 0.18 | 0.18 | 86 | 1005.9 |
| 20260506232341 | 64 | 250 | 4.3 | 7.0 | 0.00 | 0.18 | 0.18 | 86 | 1005.9 |
| 20260506231342 | 64 | 268 | 5.2 | 7.8 | 0.00 | 0.18 | 0.18 | 85 | 1005.9 |
| 20260506231141 | 64 | 263 | 5.2 | 7.8 | 0.00 | 0.18 | 0.18 | 85 | 1005.9 |
| 20260506230343 | 64 | 242 | 6.1 | 8.7 | 0.00 | 0.18 | 0.18 | 85 | 1005.9 |
| 20260506225941 | 64 | 255 | 6.1 | 7.8 | 0.00 | 0.18 | 0.18 | 85 | 1005.9 |
| 20260506225342 | 64 | 251 | 7.8 | 10.4 | 0.00 | 0.18 | 0.18 | 84 | 1005.8 |
| 20260506224741 | 64 | 228 | 7.8 | 10.4 | 0.00 | 0.18 | 0.18 | 84 | 1005.9 |
| 20260506224342 | 64 | 261 | 7.0 | 10.4 | 0.00 | 0.18 | 0.18 | 84 | 1005.9 |
| 20260506223541 | 65 | 263 | 6.1 | 8.7 | 0.00 | 0.18 | 0.18 | 84 | 1005.8 |
| 20260506223342 | 65 | 220 | 6.1 | 8.7 | 0.00 | 0.18 | 0.18 | 84 | 1005.8 |
| 20260506222415 | 65 | 235 | 7.0 | 11.3 | 0.00 | 0.18 | 0.18 | 84 | 1005.8 |
| 20260506222341 | 65 | 235 | 7.0 | 11.3 | 0.00 | 0.18 | 0.18 | 84 | 1005.8 |
| 20260506221342 | 65 | 255 | 6.1 | 8.7 | 0.00 | 0.18 | 0.18 | 84 | 1005.9 |
| 20260506221141 | 65 | 235 | 6.1 | 9.6 | 0.00 | 0.18 | 0.18 | 84 | 1005.8 |
| 20260506220342 | 65 | 248 | 4.3 | 7.8 | 0.00 | 0.18 | 0.18 | 84 | 1005.7 |
| 20260506215941 | 65 | 230 | 4.3 | 6.1 | 0.00 | 0.18 | 0.18 | 84 | 1005.7 |
| 20260506215342 | 65 | 241 | 4.3 | 6.1 | 0.00 | 0.18 | 0.18 | 84 | 1005.7 |
| 20260506214741 | 65 | 261 | 4.3 | 7.0 | 0.00 | 0.18 | 0.18 | 84 | 1005.6 |
| 20260506214343 | 65 | 229 | 4.3 | 8.7 | 0.00 | 0.18 | 0.18 | 84 | 1005.5 |
| 20260506213541 | 65 | 196 | 3.5 | 7.0 | 0.00 | 0.18 | 0.18 | 84 | 1005.5 |
| 20260506213343 | 65 | 243 | 3.5 | 7.0 | 0.00 | 0.18 | 0.18 | 84 | 1005.4 |
| 20260506212341 | 64 | 242 | 3.5 | 7.0 | 0.00 | 0.18 | 0.18 | 85 | 1005.3 |
| 20260506211342 | 64 | 229 | 6.1 | 9.6 | 0.00 | 0.18 | 0.18 | 84 | 1005.2 |
| 20260506211141 | 64 | 241 | 6.1 | 9.6 | 0.00 | 0.18 | 0.18 | 84 | 1005.3 |
| 20260506210342 | 64 | 233 | 7.0 | 10.4 | 0.00 | 0.18 | 0.18 | 84 | 1005.1 |
| 20260506205941 | 64 | 238 | 7.0 | 11.3 | 0.00 | 0.18 | 0.18 | 85 | 1005.1 |
| 20260506205344 | 64 | 246 | 5.2 | 10.4 | 0.00 | 0.18 | 0.18 | 85 | 1005.1 |
| 20260506204741 | 64 | 232 | 5.2 | 7.8 | 0.00 | 0.18 | 0.18 | 85 | 1005.1 |
| 20260506204345 | 64 | 219 | 6.1 | 7.8 | 0.00 | 0.18 | 0.18 | 85 | 1005.2 |
| 20260506203541 | 64 | 237 | 7.0 | 12.2 | 0.00 | 0.18 | 0.18 | 84 | 1005.1 |
| 20260506203342 | 64 | 243 | 7.0 | 10.4 | 0.00 | 0.18 | 0.18 | 84 | 1005.2 |
| 20260506202341 | 64 | 242 | 7.0 | 11.3 | 0.00 | 0.18 | 0.18 | 85 | 1005.1 |
| 20260506201342 | 63 | 241 | 7.0 | 10.4 | 0.00 | 0.18 | 0.18 | 86 | 1005.1 |
| 20260506201141 | 63 | 227 | 7.0 | 11.3 | 0.00 | 0.18 | 0.18 | 86 | 1005.1 |
| 20260506200343 | 63 | 227 | 7.0 | 12.2 | 0.00 | 0.18 | 0.18 | 86 | 1005.1 |
| 20260506195941 | 63 | 252 | 7.0 | 10.4 | 0.00 | 0.18 | 0.18 | 87 | 1005.0 |
| 20260506195342 | 63 | 207 | 7.0 | 10.4 | 0.00 | 0.18 | 0.18 | 87 | 1004.9 |
| 20260506194741 | 62 | 240 | 7.0 | 13.0 | 0.00 | 0.18 | 0.18 | 88 | 1005.1 |
| 20260506194343 | 62 | 244 | 7.8 | 9.6 | 0.00 | 0.18 | 0.18 | 88 | 1005.2 |
| 20260506193541 | 62 | 257 | 8.7 | 13.0 | 0.00 | 0.18 | 0.18 | 88 | 1005.2 |
| 20260506193343 | 62 | 240 | 7.8 | 13.0 | 0.00 | 0.18 | 0.18 | 88 | 1005.2 |
| 20260506192341 | 62 | 244 | 8.7 | 13.9 | 0.00 | 0.18 | 0.18 | 88 | 1005.4 |
| 20260506191343 | 62 | 227 | 9.6 | 14.8 | 0.00 | 0.18 | 0.18 | 87 | 1005.4 |
| 20260506191141 | 62 | 249 | 9.6 | 13.0 | 0.00 | 0.18 | 0.18 | 87 | 1005.4 |
| 20260506190342 | 62 | 246 | 9.6 | 14.8 | 0.00 | 0.18 | 0.18 | 89 | 1005.4 |
| 20260506185941 | 62 | 232 | 9.6 | 13.0 | 0.00 | 0.18 | 0.18 | 89 | 1005.4 |
| 20260506185344 | 62 | 230 | 9.6 | 15.6 | 0.00 | 0.18 | 0.18 | 89 | 1005.3 |
| 20260506184741 | 61 | 249 | 9.6 | 14.8 | 0.00 | 0.18 | 0.18 | 90 | 1005.4 |
| 20260506184343 | 61 | 261 | 8.7 | 15.6 | 0.00 | 0.18 | 0.18 | 90 | 1005.3 |
| 20260506183541 | 61 | 242 | 8.7 | 14.8 | 0.00 | 0.18 | 0.18 | 91 | 1005.3 |
| 20260506183343 | 60 | 254 | 8.7 | 15.6 | 0.00 | 0.18 | 0.18 | 91 | 1005.3 |
| 20260506182341 | 60 | 220 | 9.6 | 14.8 | 0.00 | 0.18 | 0.18 | 91 | 1005.6 |
| 20260506181343 | 59 | 236 | 10.4 | 14.8 | 0.00 | 0.18 | 0.18 | 92 | 1005.7 |
| 20260506181141 | 59 | 228 | 10.4 | 15.6 | 0.00 | 0.18 | 0.18 | 92 | 1005.7 |
| 20260506180343 | 59 | 200 | 9.6 | 13.0 | 0.00 | 0.18 | 0.18 | 92 | 1005.9 |
| 20260506175941 | 59 | 252 | 9.6 | 17.4 | 0.00 | 0.18 | 0.18 | 92 | 1005.9 |
| 20260506175343 | 58 | 233 | 8.7 | 13.9 | 0.00 | 0.18 | 0.18 | 92 | 1006.1 |
| 20260506174741 | 58 | 233 | 8.7 | 14.8 | 0.00 | 0.18 | 0.18 | 92 | 1005.9 |
| 20260506174343 | 58 | 214 | 8.7 | 14.8 | 0.00 | 0.18 | 0.18 | 92 | 1006.1 |
| 20260506173541 | 58 | 237 | 8.7 | 13.9 | 0.00 | 0.18 | 0.18 | 92 | 1005.9 |
| 20260506173343 | 58 | 225 | 9.6 | 13.9 | 0.00 | 0.18 | 0.18 | 92 | 1005.9 |
| 20260506172341 | 58 | 248 | 10.4 | 17.4 | 0.00 | 0.18 | 0.18 | 92 | 1005.8 |
| 20260506171344 | 58 | 244 | 10.4 | 14.8 | 0.00 | 0.18 | 0.18 | 92 | 1005.8 |
| 20260506171141 | 58 | 240 | 10.4 | 14.8 | 0.00 | 0.18 | 0.18 | 92 | 1005.8 |
| 20260506170343 | 58 | 246 | 9.6 | 18.2 | 0.00 | 0.18 | 0.18 | 92 | 1005.7 |
| 20260506165343 | 58 | 226 | 9.6 | 14.8 | 0.00 | 0.18 | 0.18 | 92 | 1005.8 |
| 20260506164343 | 58 | 238 | 9.6 | 14.8 | 0.02 | 0.18 | 0.18 | 92 | 1005.7 |
| 20260506163343 | 58 | 232 | 10.4 | 19.1 | 0.03 | 0.18 | 0.18 | 92 | 1005.9 |
| 20260506162343 | 58 | 209 | 8.7 | 14.8 | 0.04 | 0.18 | 0.18 | 92 | 1005.8 |
| 20260506161359 | 58 | 204 | 8.7 | 15.6 | 0.06 | 0.18 | 0.18 | 93 | 1005.9 |
| 20260506160344 | 58 | 185 | 8.7 | 24.3 | 0.08 | 0.18 | 0.18 | 92 | 1005.6 |
| 20260506155343 | 58 | 237 | 7.8 | 16.5 | 0.09 | 0.18 | 0.18 | 92 | 1005.6 |
| 20260506154343 | 58 | 232 | 7.8 | 13.9 | 0.08 | 0.16 | 0.16 | 92 | 1005.6 |
| 20260506153344 | 58 | 212 | 7.8 | 14.8 | 0.08 | 0.15 | 0.15 | 92 | 1006.2 |
| 20260506152343 | 58 | 262 | 7.8 | 14.8 | 0.08 | 0.14 | 0.14 | 92 | 1006.6 |
| 20260506151343 | 58 | 245 | 7.8 | 13.9 | 0.07 | 0.12 | 0.12 | 92 | 1006.6 |
| 20260506150343 | 58 | 245 | 7.8 | 13.9 | 0.05 | 0.10 | 0.10 | 92 | 1006.7 |
| 20260506145343 | 58 | 211 | 7.0 | 13.9 | 0.05 | 0.09 | 0.09 | 92 | 1006.7 |
| 20260506144343 | 58 | 239 | 7.0 | 11.3 | 0.05 | 0.08 | 0.08 | 91 | 1006.6 |
| 20260506143343 | 58 | 236 | 6.1 | 11.3 | 0.05 | 0.07 | 0.07 | 91 | 1006.5 |
| 20260506142343 | 58 | 184 | 6.1 | 13.9 | 0.05 | 0.06 | 0.06 | 91 | 1006.5 |
| 20260506141344 | 58 | 233 | 6.1 | 13.0 | 0.05 | 0.05 | 0.05 | 91 | 1006.6 |
| 20260506140343 | 58 | 252 | 5.2 | 9.6 | 0.05 | 0.05 | 0.05 | 90 | 1006.7 |
| 20260506135942 | 58 | 229 | 5.2 | 11.3 | 0.04 | 0.04 | 0.04 | 90 | 1006.6 |
| 20260506135349 | 58 | 167 | 5.2 | 10.4 | 0.04 | 0.04 | 0.04 | 90 | 1006.6 |
| 20260506134742 | 58 | 154 | 4.3 | 10.4 | 0.03 | 0.03 | 0.03 | 89 | 1006.6 |
| 20260506134343 | 59 | 230 | 5.2 | 8.7 | 0.03 | 0.03 | 0.03 | 89 | 1006.6 |
| 20260506133542 | 59 | 229 | 5.2 | 9.6 | 0.02 | 0.02 | 0.02 | 88 | 1006.6 |
| 20260506133343 | 59 | 238 | 5.2 | 9.6 | 0.02 | 0.02 | 0.02 | 88 | 1006.7 |
| 20260506132342 | 59 | 222 | 5.2 | 8.7 | 0.01 | 0.01 | 0.01 | 87 | 1006.6 |
| 20260506131343 | 60 | 242 | 5.2 | 13.9 | 0.00 | 0.00 | 0.00 | 86 | 1006.6 |
| 20260506131142 | 60 | 242 | 5.2 | 13.9 | 0.00 | 0.00 | 0.00 | 86 | 1006.6 |
| 20260506130343 | 60 | 236 | 6.1 | 11.3 | 0.00 | 0.00 | 0.00 | 86 | 1006.8 |
| 20260506125942 | 60 | 239 | 6.1 | 13.0 | 0.00 | 0.00 | 0.00 | 85 | 1006.8 |
| 20260506125343 | 60 | 219 | 5.2 | 11.3 | 0.00 | 0.00 | 0.00 | 85 | 1006.7 |
| 20260506124742 | 60 | 242 | 6.1 | 10.4 | 0.00 | 0.00 | 0.00 | 84 | 1006.9 |
| 20260506124343 | 60 | 182 | 6.1 | 13.0 | 0.00 | 0.00 | 0.00 | 84 | 1006.8 |
| 20260506123542 | 60 | 217 | 7.0 | 11.3 | 0.00 | 0.00 | 0.00 | 84 | 1006.9 |
| 20260506123343 | 60 | 229 | 7.0 | 10.4 | 0.00 | 0.00 | 0.00 | 84 | 1006.9 |
| 20260506122415 | 60 | 229 | 7.0 | 11.3 | 0.00 | 0.00 | 0.00 | 84 | 1007.0 |
| 20260506122342 | 60 | 229 | 7.0 | 11.3 | 0.00 | 0.00 | 0.00 | 84 | 1007.0 |
| 20260506121344 | 61 | 203 | 7.8 | 13.9 | 0.00 | 0.00 | 0.00 | 83 | 1006.9 |
| 20260506121142 | 61 | 228 | 7.8 | 13.9 | 0.00 | 0.00 | 0.00 | 83 | 1006.8 |
| 20260506120343 | 61 | 243 | 7.8 | 13.0 | 0.00 | 0.00 | 0.00 | 84 | 1006.7 |
| 20260506115942 | 60 | 248 | 7.8 | 13.9 | 0.00 | 0.00 | 0.00 | 84 | 1006.6 |
| 20260506115343 | 60 | 232 | 8.7 | 14.8 | 0.00 | 0.00 | 0.00 | 84 | 1006.6 |
| 20260506114742 | 60 | 234 | 9.6 | 13.9 | 0.00 | 0.00 | 0.00 | 84 | 1006.5 |
| 20260506114343 | 60 | 243 | 9.6 | 17.4 | 0.00 | 0.00 | 0.00 | 83 | 1006.4 |
| 20260506113542 | 60 | 226 | 8.7 | 13.0 | 0.00 | 0.00 | 0.00 | 83 | 1006.4 |
| 20260506113343 | 60 | 230 | 9.6 | 13.0 | 0.00 | 0.00 | 0.00 | 83 | 1006.3 |
| 20260506112342 | 60 | 184 | 8.7 | 14.8 | 0.00 | 0.00 | 0.00 | 83 | 1006.3 |
| 20260506111343 | 60 | 228 | 8.7 | 16.5 | 0.00 | 0.00 | 0.00 | 83 | 1006.3 |
| 20260506111142 | 60 | 215 | 8.7 | 16.5 | 0.00 | 0.00 | 0.00 | 83 | 1006.2 |
| 20260506110343 | 60 | 240 | 7.8 | 11.3 | 0.00 | 0.00 | 0.00 | 83 | 1006.2 |
| 20260506105942 | 60 | 240 | 7.8 | 13.9 | 0.00 | 0.00 | 0.00 | 83 | 1006.1 |
| 20260506105343 | 60 | 214 | 8.7 | 13.0 | 0.00 | 0.00 | 0.00 | 83 | 1006.0 |
| 20260506104742 | 60 | 244 | 8.7 | 18.2 | 0.00 | 0.00 | 0.00 | 83 | 1006.0 |
| 20260506104343 | 60 | 196 | 7.8 | 18.2 | 0.00 | 0.00 | 0.00 | 83 | 1005.9 |
| 20260506103542 | 60 | 227 | 8.7 | 15.6 | 0.00 | 0.00 | 0.00 | 83 | 1006.0 |
| 20260506103346 | 60 | 237 | 7.8 | 15.6 | 0.00 | 0.00 | 0.00 | 83 | 1006.0 |
| 20260506102342 | 60 | 233 | 7.8 | 14.8 | 0.00 | 0.00 | 0.00 | 83 | 1005.8 |
| 20260506101343 | 61 | 212 | 7.8 | 15.6 | 0.00 | 0.00 | 0.00 | 82 | 1005.9 |
| 20260506101142 | 61 | 202 | 7.8 | 15.6 | 0.00 | 0.00 | 0.00 | 82 | 1005.9 |
| 20260506100353 | 61 | 239 | 7.8 | 14.8 | 0.00 | 0.00 | 0.00 | 82 | 1006.0 |
| 20260506095942 | 61 | 180 | 7.8 | 14.8 | 0.00 | 0.00 | 0.00 | 81 | 1005.9 |
| 20260506095343 | 61 | 227 | 7.8 | 14.8 | 0.00 | 0.00 | 0.00 | 81 | 1005.8 |
| 20260506094742 | 61 | 226 | 7.0 | 11.3 | 0.00 | 0.00 | 0.00 | 81 | 1005.9 |
| 20260506094343 | 61 | 209 | 7.8 | 14.8 | 0.00 | 0.00 | 0.00 | 81 | 1005.9 |
| 20260506093542 | 61 | 226 | 7.8 | 13.9 | 0.00 | 0.00 | 0.00 | 80 | 1005.7 |
| 20260506093344 | 61 | 239 | 7.8 | 16.5 | 0.00 | 0.00 | 0.00 | 80 | 1005.8 |
| 20260506092342 | 62 | 227 | 7.8 | 15.6 | 0.00 | 0.00 | 0.00 | 79 | 1005.9 |
| 20260506091343 | 62 | 196 | 9.6 | 18.2 | 0.00 | 0.00 | 0.00 | 79 | 1006.0 |
| 20260506091142 | 62 | 205 | 8.7 | 18.2 | 0.00 | 0.00 | 0.00 | 79 | 1006.0 |
| 20260506090343 | 62 | 179 | 8.7 | 13.9 | 0.00 | 0.00 | 0.00 | 78 | 1006.1 |
| 20260506085942 | 62 | 205 | 7.8 | 17.4 | 0.00 | 0.00 | 0.00 | 78 | 1006.1 |
| 20260506085343 | 62 | 240 | 7.8 | 12.2 | 0.00 | 0.00 | 0.00 | 78 | 1006.0 |
| 20260506084742 | 62 | 207 | 7.0 | 15.6 | 0.00 | 0.00 | 0.00 | 78 | 1006.2 |
| 20260506084343 | 62 | 181 | 7.0 | 13.9 | 0.00 | 0.00 | 0.00 | 78 | 1006.2 |
| 20260506083542 | 62 | 178 | 6.1 | 12.2 | 0.00 | 0.00 | 0.00 | 77 | 1006.2 |
| 20260506083343 | 62 | 227 | 6.1 | 12.2 | 0.00 | 0.00 | 0.00 | 77 | 1006.2 |
| 20260506082342 | 62 | 171 | 7.0 | 14.8 | 0.00 | 0.00 | 0.00 | 77 | 1006.2 |
| 20260506081353 | 62 | 198 | 7.0 | 15.6 | 0.00 | 0.00 | 0.00 | 76 | 1006.2 |
| 20260506081142 | 62 | 229 | 6.1 | 15.6 | 0.00 | 0.00 | 0.00 | 76 | 1006.3 |
| 20260506080347 | 62 | 205 | 6.1 | 12.2 | 0.00 | 0.00 | 0.00 | 76 | 1006.3 |
| 20260506073344 | 63 | 232 | 5.2 | 10.4 | 0.00 | 0.00 | 0.00 | 74 | 1006.5 |
| 20260506072342 | 63 | 182 | 6.1 | 13.9 | 0.00 | 0.00 | 0.00 | 74 | 1006.5 |
| 20260506071343 | 63 | 215 | 6.1 | 12.2 | 0.00 | 0.00 | 0.00 | 73 | 1006.5 |
| 20260506071142 | 63 | 242 | 6.1 | 14.8 | 0.00 | 0.00 | 0.00 | 73 | 1006.5 |
| 20260506070344 | 63 | 235 | 5.2 | 10.4 | 0.00 | 0.00 | 0.00 | 73 | 1006.7 |
| 20260506062342 | 63 | 198 | 5.2 | 11.3 | 0.00 | 0.00 | 0.00 | 70 | 1007.1 |
| 20260506061348 | 63 | 202 | 6.1 | 8.7 | 0.00 | 0.00 | 0.00 | 69 | 1007.2 |
| 20260506061142 | 64 | 244 | 6.1 | 8.7 | 0.00 | 0.00 | 0.00 | 69 | 1007.2 |
| 20260506060345 | 63 | 234 | 5.2 | 8.7 | 0.00 | 0.00 | 0.00 | 69 | 1007.3 |
| 20260506051344 | 64 | 220 | 6.1 | 10.4 | 0.00 | 0.00 | 0.00 | 66 | 1007.6 |
| 20260506051143 | 64 | 193 | 6.1 | 11.3 | 0.00 | 0.00 | 0.00 | 66 | 1007.6 |
| 20260506050344 | 64 | 207 | 6.1 | 10.4 | 0.00 | 0.00 | 0.00 | 66 | 1007.7 |
| 20260506044743 | 64 | 238 | 5.2 | 8.7 | 0.00 | 0.00 | 0.00 | 65 | 1007.8 |
| 20260506044346 | 64 | 180 | 5.2 | 10.4 | 0.00 | 0.00 | 0.00 | 65 | 1007.8 |
| 20260506043543 | 64 | 183 | 5.2 | 11.3 | 0.00 | 0.00 | 0.00 | 64 | 1007.9 |
| 20260506043344 | 64 | 240 | 5.2 | 11.3 | 0.00 | 0.00 | 0.00 | 64 | 1007.8 |
| 20260506042343 | 64 | 165 | 6.1 | 9.6 | 0.00 | 0.00 | 0.00 | 63 | 1007.9 |
| 20260506041344 | 64 | 238 | 5.2 | 10.4 | 0.00 | 0.00 | 0.00 | 63 | 1007.9 |
| 20260506041143 | 64 | 205 | 5.2 | 10.4 | 0.00 | 0.00 | 0.00 | 62 | 1007.8 |
| 20260506040344 | 64 | 234 | 5.2 | 8.7 | 0.00 | 0.00 | 0.00 | 62 | 1007.8 |
| 20260506035943 | 65 | 178 | 5.2 | 8.7 | 0.00 | 0.00 | 0.00 | 61 | 1007.8 |
| 20260506035345 | 65 | 230 | 4.3 | 9.6 | 0.00 | 0.00 | 0.00 | 61 | 1007.9 |
| 20260506034743 | 65 | 227 | 4.3 | 8.7 | 0.00 | 0.00 | 0.00 | 60 | 1007.9 |
| 20260506034344 | 65 | 221 | 4.3 | 8.7 | 0.00 | 0.00 | 0.00 | 60 | 1007.9 |
| 20260506033543 | 65 | 211 | 4.3 | 7.8 | 0.00 | 0.00 | 0.00 | 60 | 1007.8 |
| 20260506033346 | 65 | 198 | 4.3 | 8.7 | 0.00 | 0.00 | 0.00 | 60 | 1007.8 |
| 20260506032343 | 65 | 221 | 4.3 | 9.6 | 0.00 | 0.00 | 0.00 | 60 | 1007.8 |
| 20260506031344 | 65 | 196 | 5.2 | 8.7 | 0.00 | 0.00 | 0.00 | 61 | 1007.9 |
| 20260506031143 | 65 | 221 | 5.2 | 8.7 | 0.00 | 0.00 | 0.00 | 60 | 1007.8 |
| 20260506030344 | 65 | 213 | 6.1 | 10.4 | 0.00 | 0.00 | 0.00 | 60 | 1007.8 |
| 20260506025943 | 65 | 192 | 5.2 | 9.6 | 0.00 | 0.00 | 0.00 | 61 | 1007.8 |
| 20260506025749 | 65 | 217 | 4.3 | 7.8 | 0.00 | 0.00 | 0.00 | 61 | 1007.9 |
| 20260506025346 | 65 | 210 | 4.3 | 9.6 | 0.00 | 0.00 | 0.00 | 61 | 1007.8 |
| 20260506024743 | 65 | 228 | 4.3 | 8.7 | 0.00 | 0.00 | 0.00 | 61 | 1007.8 |
| 20260506024344 | 65 | 217 | 4.3 | 7.8 | 0.00 | 0.00 | 0.00 | 61 | 1007.9 |
| 20260506023543 | 65 | 232 | 4.3 | 9.6 | 0.00 | 0.00 | 0.00 | 61 | 1007.9 |
| 20260506023345 | 65 | 245 | 4.3 | 9.6 | 0.00 | 0.00 | 0.00 | 61 | 1007.9 |
| 20260506022343 | 65 | 180 | 3.5 | 7.8 | 0.00 | 0.00 | 0.00 | 60 | 1007.9 |
| 20260506021344 | 66 | 181 | 4.3 | 9.6 | 0.00 | 0.00 | 0.00 | 60 | 1008.0 |
| 20260506021143 | 66 | 226 | 4.3 | 9.6 | 0.00 | 0.00 | 0.00 | 60 | 1008.0 |
| 20260506020344 | 66 | 243 | 4.3 | 8.7 | 0.00 | 0.00 | 0.00 | 59 | 1008.0 |
| 20260506015943 | 66 | 202 | 3.5 | 7.8 | 0.00 | 0.00 | 0.00 | 59 | 1008.0 |
| 20260506015344 | 66 | 221 | 4.3 | 7.8 | 0.00 | 0.00 | 0.00 | 59 | 1008.0 |
| 20260506014743 | 66 | 200 | 4.3 | 7.8 | 0.00 | 0.00 | 0.00 | 58 | 1007.9 |
| 20260506014344 | 67 | 227 | 4.3 | 9.6 | 0.00 | 0.00 | 0.00 | 58 | 1007.9 |
| 20260506013543 | 67 | 231 | 5.2 | 9.6 | 0.00 | 0.00 | 0.00 | 57 | 1007.8 |
| 20260506013344 | 67 | 234 | 5.2 | 8.7 | 0.00 | 0.00 | 0.00 | 57 | 1007.8 |
| 20260506012343 | 67 | 191 | 4.3 | 8.7 | 0.00 | 0.00 | 0.00 | 56 | 1007.6 |